FW1969 Weather Reports


Display with metric or nautical units.
time (UTC)temp
F
wind
direction
speed
MPH
gust
MPH
rain 1hr
in
rain 24hr
in
rain mn
in
humidity
%
barometer
mb
20260503231516 64 175 6.0 12.0 0.00 0.00 0.00 24 1008.5
20260503230014 65 222 5.0 12.0 0.00 0.00 0.00 24 1008.8
20260503224524 64 231 7.0 17.0 0.00 0.00 0.00 24 1009.2
20260503223010 64 213 10.0 16.0 0.00 0.00 0.00 22 1009.4
20260503221509 65 157 5.0 10.0 0.00 0.00 0.00 21 1009.7
20260503220108 65 168 8.0 17.0 0.00 0.00 0.00 21 1009.5
20260503214505 66 223 8.0 17.0 0.00 0.00 0.00 19 1010.1
20260503213004 65 263 7.0 18.0 0.00 0.00 0.00 21 1010.2
20260503211504 65 223 10.0 20.0 0.00 0.00 0.00 19 1010.3
20260503210002 66 221 7.0 15.0 0.00 0.00 0.00 18 1010.1
20260503204600 67 199 8.0 13.0 0.00 0.00 0.00 19 1010.6
20260503203109 66 225 8.0 15.0 0.00 0.00 0.00 18 1010.7
20260503201559 66 219 5.0 15.0 0.00 0.00 0.00 19 1011.0
20260503200053 65 186 4.0 15.0 0.00 0.00 0.00 18 1011.3
20260503194554 65 231 5.0 18.0 0.00 0.00 0.00 18 1012.0
20260503193047 65 222 8.0 20.0 0.00 0.00 0.00 17 1012.4
20260503191546 65 227 8.0 16.0 0.00 0.00 0.00 17 1012.7
20260503190043 64 150 6.0 16.0 0.00 0.00 0.00 17 1012.9
20260503184600 64 196 9.0 15.0 0.00 0.00 0.00 17 1013.2
20260503183040 65 260 8.0 13.0 0.00 0.00 0.00 17 1013.6
20260503181535 64 176 5.0 12.0 0.00 0.00 0.00 18 1013.6
20260503180036 64 173 5.0 15.0 0.00 0.00 0.00 19 1013.9
20260503174533 63 216 7.0 18.0 0.00 0.00 0.00 20 1014.1
20260503173034 62 152 7.0 13.0 0.00 0.00 0.00 20 1014.4
20260503171526 62 191 3.0 11.0 0.00 0.00 0.00 20 1014.7
20260503081503 38 329 0.0 0.0 0.00 0.00 0.00 55 1014.8
20260503071611 38 329 0.0 0.0 0.00 0.00 0.00 54 1014.6
20260503054556 42 329 0.0 0.0 0.00 0.00 0.00 49 1014.8
20260503053042 43 329 0.0 0.0 0.00 0.00 0.00 48 1014.9
20260503051539 43 329 0.0 0.0 0.00 0.00 0.00 48 1014.8
20260503050041 45 329 0.0 0.0 0.00 0.00 0.00 45 1014.8
20260503044545 45 329 0.0 3.0 0.00 0.00 0.00 44 1014.8
20260503043043 46 329 2.0 5.0 0.00 0.00 0.00 42 1014.8
20260503041529 46 329 3.0 5.0 0.00 0.00 0.00 43 1014.7
20260503040032 46 328 1.0 4.0 0.00 0.00 0.00 42 1014.7
20260503034525 47 328 1.0 4.0 0.00 0.00 0.00 42 1014.7
20260503033023 47 328 2.0 4.0 0.00 0.00 0.00 42 1014.7
20260503031622 48 328 3.0 5.0 0.00 0.00 0.00 41 1014.5
20260503030021 48 328 3.0 4.0 0.00 0.00 0.00 42 1014.4
20260503024520 49 328 2.0 3.0 0.00 0.00 0.00 41 1014.5
20260503023020 49 328 1.0 3.0 0.00 0.00 0.00 40 1014.4
20260503021517 50 328 1.0 3.0 0.00 0.00 0.00 39 1014.1
20260503020016 50 328 1.0 4.0 0.00 0.00 0.00 39 1013.9
20260503014515 50 328 2.0 5.0 0.00 0.00 0.00 39 1013.6
20260503013015 51 327 1.0 3.0 0.00 0.00 0.00 39 1013.4
20260503011515 51 327 2.0 4.0 0.00 0.00 0.00 40 1013.1
20260503010014 52 327 2.0 5.0 0.00 0.00 0.00 39 1012.9
20260503004514 53 326 2.0 4.0 0.00 0.00 0.00 38 1012.8
20260503003012 53 325 2.0 6.0 0.00 0.00 0.00 37 1012.6
20260503001512 53 313 3.0 5.0 0.00 0.00 0.00 37 1012.4
20260503000021 53 302 2.0 5.0 0.00 0.00 0.00 36 1012.3
20260502234512 54 301 3.0 4.0 0.00 0.00 0.00 34 1012.2
20260502233012 54 301 1.0 5.0 0.00 0.00 0.00 34 1012.2